 day,  time,  air_temp(C),  RH(%),  ground_temp10cm(C),  ground_temp20cm(C),  ground_temp40cm(C),  precipitation(mm/h),  Solar_Radiation(MJ/m2h),  lack, 
 02/09/01, 01:00,  19.8,  75,  21.8,  21.8,  20.5,   0.0,  0.00, 
 02/09/01, 02:00,  19.6,  76,  21.6,  21.8,  20.5,   0.0,  0.00, 
 02/09/01, 03:00,  18.5,  81,  21.4,  21.7,  20.5,   0.0,  0.00, 
 02/09/01, 04:00,  19.2,  73,  21.2,  21.6,  20.5,   0.0,  0.00, 
 02/09/01, 05:00,  18.5,  76,  21.0,  21.5,  20.5,   0.0,  0.00, 
 02/09/01, 06:00,  19.1,  68,  20.7,  21.4,  20.5,   0.0,  0.00, 
 02/09/01, 07:00,  20.3,  68,  20.5,  21.4,  20.5,   0.0,  0.60, 
 02/09/01, 08:00,  21.3,  67,  20.5,  21.3,  20.5,   0.0,  1.40, 
 02/09/01, 09:00,  22.1,  67,  20.5,  21.2,  20.5,   0.0,  2.12, 
 02/09/01, 10:00,  23.5,  68,  20.7,  21.1,  20.6,   0.0,  2.66, 
 02/09/01, 11:00,  24.7,  63,  21.5,  21.0,  20.6,   0.0,  3.08, 
 02/09/01, 12:00,  26.0,  55,  22.7,  21.0,  20.6,   0.0,  3.23, 
 02/09/01, 13:00,  26.7,  53,  24.0,  21.1,  20.6,   0.0,  3.20, 
 02/09/01, 14:00,  26.0,  52,  24.5,  21.3,  20.6,   0.0,  2.98, 
 02/09/01, 15:00,  25.3,  55,  24.4,  21.5,  20.6,   0.0,  2.53, 
 02/09/01, 16:00,  24.1,  58,  24.1,  21.7,  20.6,   0.0,  1.94, 
 02/09/01, 17:00,  22.3,  66,  23.8,  21.9,  20.6,   0.0,  1.20, 
 02/09/01, 18:00,  20.3,  75,  23.4,  22.0,  20.6,   0.0,  0.45, 
 02/09/01, 19:00,  18.5,  84,  23.0,  22.1,  20.6,   0.0,  0.01, 
 02/09/01, 20:00,  16.4,  94,  22.6,  22.1,  20.6,   0.0,  0.00, 
 02/09/01, 21:00,  15.6,  97,  22.2,  22.0,  20.5,   0.0,  0.00, 
 02/09/01, 22:00,  14.9,  99,  21.8,  22.0,  20.6,   0.0,  0.00, 
 02/09/01, 23:00,  15.2,  98,  21.5,  21.9,  20.6,   0.0,  0.00, 
 02/09/02, 00:00,  15.5,  99,  21.1,  21.8,  20.5,   0.0,  0.00, 
 02/09/02, 01:00,  15.5,  98,  20.8,  21.6,  20.5,   0.0,  0.00, 
 02/09/02, 02:00,  14.2,  99,  20.6,  21.6,  20.5,   0.0,  0.00, 
 02/09/02, 03:00,  13.8,  98,  20.4,  21.5,  20.5,   0.0,  0.00, 
 02/09/02, 04:00,  13.9,  99,  20.1,  21.3,  20.6,   0.0,  0.00, 
 02/09/02, 05:00,  12.5,  99,  19.8,  21.2,  20.6,   0.0,  0.00, 
 02/09/02, 06:00,  12.2,  99,  19.5,  21.1,  20.6,   0.0,  0.00, 
 02/09/02, 07:00,  14.8,  91,  19.3,  20.9,  20.6,   0.0,  0.59, 
 02/09/02, 08:00,  18.3,  65,  19.3,  20.8,  20.6,   0.0,  1.41, 
 02/09/02, 09:00,  19.7,  64,  19.3,  20.7,  20.5,   0.0,  2.16, 
 02/09/02, 10:00,  22.7,  65,  19.4,  20.6,  20.5,   0.0,  2.68, 
 02/09/02, 11:00,  22.9,  65,  20.3,  20.5,  20.5,   0.0,  3.10, 
 02/09/02, 12:00,  23.8,  63,  21.6,  20.5,  20.5,   0.0,  3.26, 
 02/09/02, 13:00,  24.9,  60,  23.0,  20.5,  20.5,   0.0,  3.10, 
 02/09/02, 14:00,  25.4,  54,  23.6,  20.7,  20.5,   0.0,  3.11, 
 02/09/02, 15:00,  25.2,  58,  23.6,  20.9,  20.5,   0.0,  2.60, 
 02/09/02, 16:00,  24.0,  63,  23.5,  21.2,  20.4,   0.0,  2.03, 
 02/09/02, 17:00,  21.6,  70,  23.3,  21.4,  20.4,   0.0,  0.95, 
 02/09/02, 18:00,  20.7,  73,  23.0,  21.5,  20.4,   0.0,  0.27, 
 02/09/02, 19:00,  18.5,  82,  22.7,  21.6,  20.5,   0.0,  0.01, 
 02/09/02, 20:00,  16.9,  91,  22.3,  21.6,  20.4,   0.0,  0.00, 
 02/09/02, 21:00,  17.5,  88,  21.9,  21.6,  20.4,   0.0,  0.00, 
 02/09/02, 22:00,  16.9,  90,  21.6,  21.6,  20.4,   0.0,  0.00, 
 02/09/02, 23:00,  16.0,  95,  21.2,  21.6,  20.4,   0.0,  0.00, 
 02/09/03, 00:00,  15.6,  97,  20.9,  21.5,  20.4,   0.0,  0.00, 
 02/09/03, 01:00,  15.6,  98,  20.7,  21.4,  20.4,   0.0,  0.00, 
 02/09/03, 02:00,  16.3,  98,  20.4,  21.2,  20.4,   0.0,  0.00, 
 02/09/03, 03:00,  16.4,  99,  20.3,  21.2,  20.5,   0.0,  0.00, 
 02/09/03, 04:00,  15.7,  99,  20.1,  21.1,  20.5,   0.0,  0.00, 
 02/09/03, 05:00,  16.6,  98,  20.0,  21.0,  20.5,   0.0,  0.00, 
 02/09/03, 06:00,  17.3,  92,  19.9,  20.9,  20.5,   0.0,  0.00, 
 02/09/03, 07:00,  18.5,  84,  19.9,  20.8,  20.5,   0.0,  0.38, 
 02/09/03, 08:00,  18.8,  87,  20.0,  20.7,  20.5,   0.0,  1.30, 
 02/09/03, 09:00,  20.6,  81,  20.0,  20.7,  20.4,   0.0,  2.05, 
 02/09/03, 10:00,  23.2,  72,  20.1,  20.6,  20.4,   0.0,  2.27, 
 02/09/03, 11:00,  23.8,  69,  20.8,  20.6,  20.4,   0.0,  2.84, 
 02/09/03, 12:00,  25.1,  63,  22.0,  20.6,  20.4,   0.0,  3.28, 
 02/09/03, 13:00,  26.0,  59,  23.3,  20.6,  20.4,   0.0,  3.01, 
 02/09/03, 14:00,  25.8,  59,  23.9,  20.8,  20.5,   0.0,  2.81, 
 02/09/03, 15:00,  24.5,  67,  23.9,  21.1,  20.5,   0.0,  1.99, 
 02/09/03, 16:00,  24.5,  68,  23.8,  21.3,  20.5,   0.0,  0.87, 
 02/09/03, 17:00,  23.8,  66,  23.7,  21.5,  20.4,   0.0,  0.67, 
 02/09/03, 18:00,  21.2,  77,  23.6,  21.6,  20.5,   0.0,  0.16, 
 02/09/03, 19:00,  19.5,  90,  23.3,  21.7,  20.4,   0.0,  0.00, 
 02/09/03, 20:00,  19.1,  94,  23.0,  21.8,  20.5,   0.0,  0.00, 
 02/09/03, 21:00,  18.7,  96,  22.6,  21.8,  20.4,   0.0,  0.00, 
 02/09/03, 22:00,  18.9,  97,  22.3,  21.8,  20.5,   0.0,  0.00, 
 02/09/03, 23:00,  18.8,  98,  22.1,  21.8,  20.4,   0.0,  0.00, 
 02/09/04, 00:00,  18.5,  98,  22.0,  21.8,  20.4,   0.0,  0.00, 
 02/09/04, 01:00,  18.3,  98,  21.8,  21.6,  20.4,   0.0,  0.00, 
 02/09/04, 02:00,  17.7,  98,  21.6,  21.7,  20.4,   0.0,  0.00, 
 02/09/04, 03:00,  17.2,  98,  21.5,  21.6,  20.4,   0.0,  0.00, 
 02/09/04, 04:00,  16.3,  99,  21.3,  21.5,  20.5,   0.0,  0.00, 
 02/09/04, 05:00,  16.7,  98,  21.0,  21.5,  20.5,   0.0,  0.00, 
 02/09/04, 06:00,  18.3,  88,  20.9,  21.4,  20.5,   0.0,  0.00, 
 02/09/04, 07:00,  19.4,  84,  20.7,  21.3,  20.5,   0.0,  0.40, 
 02/09/04, 08:00,  20.1,  84,  20.7,  21.2,  20.5,   0.0,  1.19, 
 02/09/04, 09:00,  21.1,  84,  20.7,  21.2,  20.5,   0.0,  1.92, 
 02/09/04, 10:00,  22.9,  81,  20.9,  21.1,  20.5,   0.0,  2.35, 
 02/09/04, 11:00,  24.9,  74,  21.6,  21.1,  20.5,   0.0,  2.66, 
 02/09/04, 12:00,  23.9,  71,  22.6,  21.1,  20.6,   0.0,  2.08, 
 02/09/04, 13:00,  25.8,  55,  23.4,  21.1,  20.6,   0.0,  2.96, 
 02/09/04, 14:00,  25.8,  51,  23.9,  21.3,  20.6,   0.0,  2.89, 
 02/09/04, 15:00,  26.3,  55,  23.9,  21.5,  20.6,   0.0,  2.48, 
 02/09/04, 16:00,  18.7,  99,  23.8,  21.6,  20.5,   0.0,  0.26, 
 02/09/04, 17:00,  18.9,  99,  23.5,  21.8,  20.6,   0.0,  0.19, 
 02/09/04, 18:00,  18.8,  99,  23.2,  21.8,  20.5,   0.0,  0.07, 
 02/09/04, 19:00,  18.5,  99,  22.9,  21.8,  20.5,   0.0,  0.00, 
 02/09/04, 20:00,  18.5,  99,  22.7,  22.0,  20.6,   0.0,  0.00, 
 02/09/04, 21:00,  18.3,  99,  22.5,  22.0,  20.6,   0.0,  0.00, 
 02/09/04, 22:00,  17.7,  99,  22.3,  21.8,  20.5,   0.0,  0.00, 
 02/09/04, 23:00,  17.9,  99,  22.0,  21.8,  20.5,   0.0,  0.00, 
 02/09/05, 00:00,  17.7,  99,  21.8,  21.8,  20.5,   0.0,  0.00, 
 02/09/05, 01:00,  17.7,  99,  21.7,  21.8,  20.5,   0.0,  0.00, 
 02/09/05, 02:00,  17.7,  99,  21.5,  21.7,  20.5,   0.0,  0.00, 
 02/09/05, 03:00,  17.5,  99,  21.4,  21.7,  20.6,   0.0,  0.00, 
 02/09/05, 04:00,  16.9,  99,  21.3,  21.6,  20.6,   0.0,  0.00, 
 02/09/05, 05:00,  16.7,  99,  21.2,  21.5,  20.6,   0.0,  0.00, 
 02/09/05, 06:00,  16.5,  99,  21.0,  21.5,  20.6,   0.0,  0.03, 
 02/09/05, 07:00,  17.0,  99,  20.9,  21.4,  20.6,   0.0,  0.18, 
 02/09/05, 08:00,  17.7,  99,  20.8,  21.3,  20.6,   0.0,  0.28, 
 02/09/05, 09:00,  18.6,  98,  20.8,  21.3,  20.6,   0.0,  0.56, 
 02/09/05, 10:00,  18.2,  97,  20.9,  21.2,  20.6,   0.0,  0.51, 
 02/09/05, 11:00,  19.4,  92,  21.0,  21.1,  20.6,   0.0,  1.20, 
 02/09/05, 12:00,  21.9,  86,  21.3,  21.1,  20.6,   0.0,  1.45, 
 02/09/05, 13:00,  21.9,  83,  21.9,  21.1,  20.6,   0.0,  1.96, 
 02/09/05, 14:00,  21.8,  85,  22.4,  21.1,  20.6,   0.0,  1.89, 
 02/09/05, 15:00,  20.9,  86,  22.7,  21.2,  20.6,   0.0,  0.67, 
 02/09/05, 16:00,  21.3,  84,  22.7,  21.3,  20.7,   0.0,  1.10, 
 02/09/05, 17:00,  20.9,  86,  22.8,  21.4,  20.6,   0.0,  0.27, 
 02/09/05, 18:00,  19.5,  94,  22.7,  21.5,  20.6,   0.0,  0.12, 
 02/09/05, 19:00,  19.5,  90,  22.5,  21.5,  20.5,   0.0,  0.00, 
 02/09/05, 20:00,  18.7,  97,  22.3,  21.6,  20.6,   0.0,  0.00, 
 02/09/05, 21:00,  18.3,  99,  22.1,  21.6,  20.5,   0.0,  0.00, 
 02/09/05, 22:00,  18.1,  99,  21.8,  21.6,  20.5,   0.0,  0.00, 
 02/09/05, 23:00,  17.7,  99,  21.6,  21.6,  20.6,   0.0,  0.00, 
 02/09/06, 00:00,  17.7,  99,  21.5,  21.5,  20.6,   0.0,  0.00, 
 02/09/06, 01:00,  16.8,  99,  21.3,  21.5,  20.6,   0.0,  0.00, 
 02/09/06, 02:00,  16.6,  99,  21.1,  21.4,  20.6,   0.0,  0.00, 
 02/09/06, 03:00,  16.7,  99,  20.9,  21.4,  20.6,   0.0,  0.00, 
 02/09/06, 04:00,  16.8,  99,  20.8,  21.3,  20.6,   0.0,  0.00, 
 02/09/06, 05:00,  16.9,  98,  20.6,  21.2,  20.6,   0.0,  0.00, 
 02/09/06, 06:00,  16.8,  99,  20.5,  21.2,  20.6,   0.0,  0.00, 
 02/09/06, 07:00,  16.9,  99,  20.4,  21.1,  20.6,   0.0,  0.20, 
 02/09/06, 08:00,  17.4,  99,  20.4,  21.0,  20.6,   0.0,  0.38, 
 02/09/06, 09:00,  18.3,  98,  20.5,  21.0,  20.6,   0.0,  0.72, 
 02/09/06, 10:00,  17.9,  99,  20.7,  20.9,  20.6,   0.0,  0.34, 
 02/09/06, 11:00,  17.4,  99,  20.7,  20.9,  20.6,   0.0,  0.07, 
 02/09/06, 12:00,  17.3,  99,  20.7,  20.8,  20.5,   0.0,  0.19, 
 02/09/06, 13:00,  17.3,  99,  20.6,  20.8,  20.5,   0.0,  0.29, 
 02/09/06, 14:00,  17.1,  96,  20.6,  20.8,  20.5,   0.0,  0.38, 
 02/09/06, 15:00,  17.3,  99,  20.6,  20.8,  20.5,   0.0,  0.53, 
 02/09/06, 16:00,  17.7,  99,  20.6,  20.8,  20.5,   0.0,  0.54, 
 02/09/06, 17:00,  17.3,  99,  20.7,  20.7,  20.5,   0.0,  0.15, 
 02/09/06, 18:00,  17.3,  99,  20.7,  20.7,  20.5,   0.0,  0.04, 
 02/09/06, 19:00,  17.2,  99,  20.6,  20.7,  20.5,   0.0,  0.00, 
 02/09/06, 20:00,  16.9,  99,  20.5,  20.7,  20.5,   0.0,  0.00, 
 02/09/06, 21:00,  16.8,  99,  20.4,  20.7,  20.5,   0.0,  0.00, 
 02/09/06, 22:00,  16.8,  99,  20.3,  20.7,  20.5,   0.0,  0.00, 
 02/09/06, 23:00,  16.5,  99,  20.2,  20.6,  20.5,   0.0,  0.00, 
 02/09/07, 00:00,  16.2,  99,  20.1,  20.6,  20.4,   0.0,  0.00, 
 02/09/07, 01:00,  16.3,  99,  20.0,  20.6,  20.4,   0.0,  0.00, 
 02/09/07, 02:00,  16.1,  99,  19.9,  20.4,  20.4,   0.0,  0.00, 
 02/09/07, 03:00,  16.2,  99,  19.8,  20.4,  20.4,   0.0,  0.00, 
 02/09/07, 04:00,  16.0,  99,  19.7,  20.4,  20.4,   0.0,  0.00, 
 02/09/07, 05:00,  15.8,  99,  19.6,  20.3,  20.4,   0.0,  0.00, 
 02/09/07, 06:00,  16.3,  99,  19.5,  20.3,  20.4,   0.0,  0.00, 
 02/09/07, 07:00,  16.9,  99,  19.5,  20.3,  20.4,   0.0,  0.28, 
 02/09/07, 08:00,  17.6,  99,  19.5,  20.1,  20.4,   0.0,  0.47, 
 02/09/07, 09:00,  19.8,  90,  19.6,  20.1,  20.4,   0.0,  0.98, 
 02/09/07, 10:00,  19.4,  97,  19.9,  20.0,  20.3,   0.0,  1.43, 
 02/09/07, 11:00,  19.6,  97,  20.3,  20.0,  20.3,   0.0,  0.75, 
 02/09/07, 12:00,  18.5,  99,  20.5,  20.0,  20.3,   0.0,  0.80, 
 02/09/07, 13:00,  19.7,  95,  20.8,  20.2,  20.3,   0.0,  0.79, 
 02/09/07, 14:00,  19.7,  94,  20.9,  20.2,  20.3,   0.0,  0.55, 
 02/09/07, 15:00,  20.9,  92,  21.1,  20.3,  20.3,   0.0,  1.09, 
 02/09/07, 16:00,  18.9,  95,  21.2,  20.4,  20.3,   0.0,  0.32, 
 02/09/07, 17:00,  17.9,  99,  21.2,  20.4,  20.3,   0.0,  0.08, 
 02/09/07, 18:00,  17.3,  99,  21.0,  20.4,  20.2,   0.0,  0.03, 
 02/09/07, 19:00,  16.9,  99,  21.0,  20.5,  20.2,   0.0,  0.00, 
 02/09/07, 20:00,  16.9,  99,  20.8,  20.6,  20.2,   0.0,  0.00, 
 02/09/07, 21:00,  16.8,  99,  20.6,  20.5,  20.2,   0.0,  0.00, 
 02/09/07, 22:00,  16.6,  99,  20.5,  20.6,  20.2,   0.0,  0.00, 
 02/09/07, 23:00,  16.6,  99,  20.3,  20.4,  20.2,   0.0,  0.00, 
 02/09/08, 00:00,  16.6,  99,  20.1,  20.4,  20.2,   0.0,  0.00, 
 02/09/08, 01:00,  16.7,  99,  20.0,  20.4,  20.2,   0.0,  0.00, 
 02/09/08, 02:00,  16.6,  99,  20.0,  20.4,  20.2,   0.0,  0.00, 
 02/09/08, 03:00,  16.5,  99,  19.9,  20.4,  20.2,   0.0,  0.00, 
 02/09/08, 04:00,  16.5,  99,  19.9,  20.2,  20.2,   0.0,  0.00, 
 02/09/08, 05:00,  16.4,  99,  19.7,  20.2,  20.2,   0.0,  0.00, 
 02/09/08, 06:00,  16.4,  99,  19.7,  20.1,  20.2,   0.0,  0.00, 
 02/09/08, 07:00,  16.1,  99,  19.6,  20.1,  20.2,   0.0,  0.04, 
 02/09/08, 08:00,  17.3,  99,  19.6,  20.1,  20.2,   0.0,  0.69, 
 02/09/08, 09:00,  17.7,  99,  19.7,  20.0,  20.2,   0.0,  1.38, 
 02/09/08, 10:00,  17.7,  99,  19.9,  20.0,  20.2,   0.0,  0.44, 
 02/09/08, 11:00,  17.5,  99,  20.0,  20.0,  20.2,   0.0,  0.39, 
 02/09/08, 12:00,  18.9,  92,  20.1,  20.0,  20.2,   0.0,  1.34, 
 02/09/08, 13:00,  21.4,  84,  20.5,  20.0,  20.1,   0.0,  1.55, 
 02/09/08, 14:00,  20.1,  88,  20.8,  20.0,  20.1,   0.0,  2.37, 
 02/09/08, 15:00,  19.7,  87,  21.2,  20.2,  20.1,   0.0,  1.93, 
 02/09/08, 16:00,  18.3,  86,  21.5,  20.2,  20.1,   0.0,  1.04, 
 02/09/08, 17:00,  18.0,  91,  21.5,  20.3,  20.1,   0.0,  0.37, 
 02/09/08, 18:00,  17.7,  91,  21.4,  20.4,  20.1,   0.0,  0.24, 
 02/09/08, 19:00,  15.7,  97,  21.2,  20.5,  20.1,   0.0,  0.00, 
 02/09/08, 20:00,  15.6,  99,  20.9,  20.5,  20.1,   0.0,  0.00, 
 02/09/08, 21:00,  15.9,  98,  20.7,  20.6,  20.1,   0.0,  0.00, 
 02/09/08, 22:00,  15.6,  99,  20.5,  20.6,  20.1,   0.0,  0.00, 
 02/09/08, 23:00,  15.5,  99,  20.4,  20.4,  20.1,   0.0,  0.00, 
 02/09/09, 00:00,  15.1,  99,  20.2,  20.5,  20.1,   0.0,  0.00, 
 02/09/09, 01:00,  14.7,  99,  20.0,  20.4,  20.1,   0.0,  0.00, 
 02/09/09, 02:00,  14.4,  99,  19.9,  20.4,  20.1,   0.0,  0.00, 
 02/09/09, 03:00,  14.2,  99,  19.8,  20.4,  20.1,   0.0,  0.00, 
 02/09/09, 04:00,  13.9,  99,  19.6,  20.2,  20.1,   0.0,  0.00, 
 02/09/09, 05:00,  12.4,  99,  19.5,  20.1,  20.1,   0.0,  0.00, 
 02/09/09, 06:00,  12.7,  99,  19.2,  20.1,  20.1,   0.0,  0.00, 
 02/09/09, 07:00,  13.8,  99,  19.0,  20.0,  20.1,   0.0,  0.24, 
 02/09/09, 08:00,  13.8,  99,  19.0,  20.0,  20.1,   0.0,  0.53, 
 02/09/09, 09:00,  15.7,  92,  19.0,  20.0,  20.1,   0.0,  1.90, 
 02/09/09, 10:00,  16.0,  93,  19.1,  19.9,  20.1,   0.0,  1.05, 
 02/09/09, 11:00,  17.7,  87,  19.4,  19.8,  20.1,   0.0,  1.86, 
 02/09/09, 12:00,  19.5,  79,  20.0,  19.8,  20.0,   0.0,  2.56, 
 02/09/09, 13:00,  19.7,  72,  20.8,  19.7,  20.0,   0.0,  2.37, 
 02/09/09, 14:00,  20.5,  64,  21.2,  19.9,  20.0,   0.0,  3.04, 
 02/09/09, 15:00,  19.7,  70,  21.4,  20.0,  20.0,   0.0,  2.23, 
 02/09/09, 16:00,  18.5,  77,  21.5,  20.1,  20.0,   0.0,  0.95, 
 02/09/09, 17:00,  17.3,  88,  21.5,  20.2,  20.0,   0.0,  1.01, 
 02/09/09, 18:00,  15.7,  95,  21.3,  20.3,  20.0,   0.0,  0.29, 
 02/09/09, 19:00,  15.2,  99,  20.9,  20.3,  20.0,   0.0,  0.00, 
 02/09/09, 20:00,  14.6,  99,  20.7,  20.4,  20.0,   0.0,  0.00, 
 02/09/09, 21:00,  14.5,  99,  20.5,  20.4,  20.0,   0.0,  0.00, 
 02/09/09, 22:00,  14.2,  99,  20.3,  20.4,  20.0,   0.0,  0.00, 
 02/09/09, 23:00,  14.2,  99,  20.1,  20.4,  20.0,   0.0,  0.00, 
 02/09/10, 00:00,  13.5,  99,  19.9,  20.3,  20.0,   0.0,  0.00, 
 02/09/10, 01:00,  13.5,  99,  19.7,  20.3,  20.0,   0.0,  0.00, 
 02/09/10, 02:00,  13.6,  99,  19.6,  20.1,  20.0,   0.0,  0.00, 
 02/09/10, 03:00,  13.5,  99,  19.4,  20.2,  20.0,   0.0,  0.00, 
 02/09/10, 04:00,  12.1,  99,  19.2,  20.0,  20.0,   0.0,  0.00, 
 02/09/10, 05:00,  12.3,  98,  18.9,  19.9,  20.0,   0.0,  0.00, 
 02/09/10, 06:00,  13.0,  99,  18.7,  20.0,  20.0,   0.0,  0.01, 
 02/09/10, 07:00,  14.9,  88,  18.6,  19.9,  20.0,   0.0,  0.49, 
 02/09/10, 08:00,  17.4,  81,  18.5,  19.7,  20.0,   0.0,  1.29, 
 02/09/10, 09:00,  18.5,  76,  18.5,  19.7,  19.9,   0.0,  1.92, 
 02/09/10, 10:00,  17.7,  88,  18.7,  19.6,  19.9,   0.0,  1.84, 
 02/09/10, 11:00,  19.2,  80,  19.1,  19.6,  19.9,   0.0,  1.43, 
 02/09/10, 12:00,  19.5,  76,  19.8,  19.6,  19.9,   0.0,  2.19, 
 02/09/10, 13:00,  20.3,  77,  20.4,  19.6,  19.9,   0.0,  1.38, 
 02/09/10, 14:00,  20.7,  77,  20.8,  19.7,  19.9,   0.0,  2.09, 
 02/09/10, 15:00,  19.6,  77,  21.0,  19.7,  19.9,   0.0,  1.02, 
 02/09/10, 16:00,  18.7,  80,  21.0,  19.8,  19.9,   0.0,  0.76, 
 02/09/10, 17:00,  17.8,  89,  20.9,  20.0,  19.8,   0.0,  0.61, 
 02/09/10, 18:00,  17.4,  93,  20.8,  20.0,  19.8,   0.0,  0.15, 
 02/09/10, 19:00,  16.9,  94,  20.7,  20.0,  19.8,   0.0,  0.00, 
 02/09/10, 20:00,  16.5,  98,  20.5,  20.1,  19.8,   0.0,  0.00, 
 02/09/10, 21:00,  16.5,  96,  20.3,  20.1,  19.8,   0.0,  0.00, 
 02/09/10, 22:00,  15.9,  99,  20.2,  20.1,  19.8,   0.0,  0.00, 
 02/09/10, 23:00,  16.2,  99,  20.0,  20.0,  19.8,   0.0,  0.00, 
 02/09/11, 00:00,  16.0,  99,  19.8,  20.0,  19.8,   0.0,  0.00, 
 02/09/11, 01:00,  16.0,  99,  19.7,  20.0,  19.8,   0.0,  0.00, 
 02/09/11, 02:00,  16.2,  97,  19.6,  20.0,  19.8,   0.0,  0.00, 
 02/09/11, 03:00,  15.7,  99,  19.5,  19.9,  19.8,   0.0,  0.00, 
 02/09/11, 04:00,  15.7,  98,  19.3,  19.8,  19.8,   0.0,  0.00, 
 02/09/11, 05:00,  15.5,  99,  19.2,  19.8,  19.8,   0.0,  0.00, 
 02/09/11, 06:00,  15.4,  98,  19.1,  19.7,  19.8,   0.0,  0.00, 
 02/09/11, 07:00,  16.0,  92,  19.0,  19.7,  19.8,   0.0,  0.18, 
 02/09/11, 08:00,  16.8,  95,  19.0,  19.7,  19.8,   0.0,  0.36, 
 02/09/11, 09:00,  17.9,  74,  19.1,  19.6,  19.8,   0.0,  0.75, 
 02/09/11, 10:00,  18.5,  75,  19.4,  19.7,  19.8,   0.0,  1.31, 
 02/09/11, 11:00,  19.2,  78,  19.7,  19.6,  19.8,   0.0,  1.05, 
 02/09/11, 12:00,  20.8,  72,  20.0,  19.6,  19.8,   0.0,  1.84, 
 02/09/11, 13:00,  21.5,  76,  20.6,  19.7,  19.8,   0.0,  2.08, 
 02/09/11, 14:00,  20.4,  81,  21.1,  19.7,  19.8,   0.0,  1.89, 
 02/09/11, 15:00,  19.7,  84,  21.4,  19.8,  19.7,   0.0,  0.67, 
 02/09/11, 16:00,  19.9,  85,  21.5,  19.9,  19.7,   0.0,  1.05, 
 02/09/11, 17:00,  18.6,  90,  21.5,  20.0,  19.7,   0.0,  0.43, 
 02/09/11, 18:00,  18.1,  92,  21.4,  20.1,  19.7,   0.0,  0.04, 
 02/09/11, 19:00,  17.7,  96,  21.2,  20.3,  19.7,   0.0,  0.00, 
 02/09/11, 20:00,  17.4,  96,  20.9,  20.2,  19.7,   0.0,  0.00, 
 02/09/11, 21:00,  17.3,  96,  20.8,  20.3,  19.7,   0.0,  0.00, 
 02/09/11, 22:00,  17.1,  97,  20.6,  20.2,  19.7,   0.0,  0.00, 
 02/09/11, 23:00,  16.8,  99,  20.5,  20.2,  19.7,   0.0,  0.00, 
 02/09/12, 00:00,  16.2,  99,  20.3,  20.2,  19.7,   0.0,  0.00, 
 02/09/12, 01:00,  16.0,  99,  20.1,  20.3,  19.7,   0.0,  0.00, 
 02/09/12, 02:00,  15.7,  99,  19.9,  20.1,  19.7,   0.0,  0.00, 
 02/09/12, 03:00,  15.2,  99,  19.8,  20.1,  19.7,   0.0,  0.00, 
 02/09/12, 04:00,  15.1,  99,  19.6,  20.0,  19.7,   0.0,  0.00, 
 02/09/12, 05:00,  15.6,  99,  19.5,  20.0,  19.8,   0.0,  0.00, 
 02/09/12, 06:00,  15.9,  99,  19.4,  19.9,  19.8,   0.0,  0.00, 
 02/09/12, 07:00,  16.6,  99,  19.3,  20.0,  19.8,   0.0,  0.12, 
 02/09/12, 08:00,  16.7,  99,  19.3,  19.8,  19.8,   0.0,  0.27, 
 02/09/12, 09:00,  18.5,  93,  19.4,  19.8,  19.8,   0.0,  1.10, 
 02/09/12, 10:00,  18.6,  94,  19.6,  19.7,  19.8,   0.0,  1.67, 
 02/09/12, 11:00,  20.9,  81,  20.0,  19.7,  19.8,   0.0,  2.07, 
 02/09/12, 12:00,  20.6,  79,  20.6,  19.8,  19.8,   0.0,  1.80, 
 02/09/12, 13:00,  21.0,  78,  21.2,  19.8,  19.7,   0.0,  2.10, 
 02/09/12, 14:00,  21.6,  76,  21.7,  19.9,  19.7,   0.0,  1.37, 
 02/09/12, 15:00,  18.5,  93,  21.8,  20.0,  19.7,   0.0,  0.44, 
 02/09/12, 16:00,  17.9,  94,  21.7,  20.1,  19.7,   0.0,  0.75, 
 02/09/12, 17:00,  16.9,  95,  21.7,  20.2,  19.7,   0.0,  0.22, 
 02/09/12, 18:00,  16.2,  97,  21.4,  20.3,  19.7,   0.0,  0.05, 
 02/09/12, 19:00,  16.4,  96,  21.3,  20.5,  19.7,   0.0,  0.00, 
 02/09/12, 20:00,  15.7,  98,  20.9,  20.4,  19.7,   0.0,  0.00, 
 02/09/12, 21:00,  16.2,  88,  20.8,  20.5,  19.7,   0.0,  0.00, 
 02/09/12, 22:00,  16.1,  86,  20.5,  20.4,  19.7,   0.0,  0.00, 
 02/09/12, 23:00,  15.3,  91,  20.2,  20.4,  19.7,   0.0,  0.00, 
 02/09/13, 00:00,  15.6,  85,  20.0,  20.3,  19.7,   0.0,  0.00, 
 02/09/13, 01:00,  13.6,  98,  19.8,  20.2,  19.8,   0.0,  0.00, 
 02/09/13, 02:00,  13.1,  99,  19.6,  20.1,  19.8,   0.0,  0.00, 
 02/09/13, 03:00,  13.1,  99,  19.3,  20.1,  19.8,   0.0,  0.00, 
 02/09/13, 04:00,  12.8,  99,  19.0,  20.0,  19.8,   0.0,  0.00, 
 02/09/13, 05:00,  13.5,  99,  18.9,  20.0,  19.8,   0.0,  0.00, 
 02/09/13, 06:00,  13.7,  99,  18.7,  19.8,  19.8,   0.0,  0.00, 
 02/09/13, 07:00,  14.2,  97,  18.6,  19.7,  19.8,   0.0,  0.13, 
 02/09/13, 08:00,  15.2,  98,  18.6,  19.7,  19.8,   0.0,  0.44, 
 02/09/13, 09:00,  16.8,  91,  18.6,  19.5,  19.8,   0.0,  1.24, 
 02/09/13, 10:00,  17.5,  89,  18.9,  19.6,  19.8,   0.0,  1.61, 
 02/09/13, 11:00,  18.1,  88,  19.4,  19.5,  19.7,   0.0,  1.55, 
 02/09/13, 12:00,  20.5,  81,  19.9,  19.5,  19.7,   0.0,  2.49, 
 02/09/13, 13:00,  18.6,  83,  20.7,  19.5,  19.7,   0.0,  1.38, 
 02/09/13, 14:00,  19.1,  80,  20.9,  19.6,  19.7,   0.0,  1.03, 
 02/09/13, 15:00,  17.1,  91,  21.0,  19.7,  19.7,   0.0,  0.28, 
 02/09/13, 16:00,  15.7,  99,  20.9,  19.8,  19.7,   0.0,  0.02, 
 02/09/13, 17:00,  14.3,  99,  20.8,  19.9,  19.7,   0.0,  0.00, 
 02/09/13, 18:00,  12.7,  99,  20.4,  19.9,  19.7,   0.0,  0.00, 
 02/09/13, 19:00,  11.5,  99,  20.0,  20.0,  19.7,   0.0,  0.00, 
 02/09/13, 20:00,  11.3,  99,  19.7,  20.0,  19.7,   0.0,  0.00, 
 02/09/13, 21:00,  11.4,  99,  19.5,  19.9,  19.7,   0.0,  0.00, 
 02/09/13, 22:00,  11.3,  99,  19.2,  19.9,  19.7,   0.0,  0.00, 
 02/09/13, 23:00,  11.5,  99,  19.0,  19.9,  19.7,   0.0,  0.00, 
 02/09/14, 00:00,  11.6,  99,  18.8,  19.7,  19.7,   0.0,  0.00, 
 02/09/14, 01:00,  11.4,  99,  18.6,  19.7,  19.7,   0.0,  0.00, 
 02/09/14, 02:00,  11.4,  99,  18.4,  19.6,  19.7,   0.0,  0.00, 
 02/09/14, 03:00,  11.4,  99,  18.3,  19.4,  19.7,   0.0,  0.00, 
 02/09/14, 04:00,  11.7,  99,  18.1,  19.3,  19.6,   0.0,  0.00, 
 02/09/14, 05:00,  11.9,  99,  18.0,  19.4,  19.6,   0.0,  0.00, 
 02/09/14, 06:00,  11.7,  99,  17.9,  19.2,  19.6,   0.0,  0.00, 
 02/09/14, 07:00,  11.7,  99,  17.8,  19.1,  19.6,   0.0,  0.13, 
 02/09/14, 08:00,  12.9,  98,  17.7,  19.0,  19.6,   0.0,  0.39, 
 02/09/14, 09:00,  12.5,  99,  17.8,  18.9,  19.6,   0.0,  0.59, 
 02/09/14, 10:00,  12.2,  99,  17.9,  18.9,  19.6,   0.0,  0.38, 
 02/09/14, 11:00,  13.6,  99,  17.9,  18.8,  19.6,   0.0,  0.86, 
 02/09/14, 12:00,  13.7,  99,  18.1,  18.8,  19.5,   0.0,  0.56, 
 02/09/14, 13:00,  14.7,  99,  18.2,  18.7,  19.5,   0.0,  1.10, 
 02/09/14, 14:00,  14.6,  99,  18.5,  18.7,  19.5,   0.0,  0.76, 
 02/09/14, 15:00,  15.2,  96,  18.6,  18.7,  19.5,   0.0,  0.49, 
 02/09/14, 16:00,  14.8,  97,  18.7,  18.8,  19.5,   0.0,  0.39, 
 02/09/14, 17:00,  14.4,  99,  18.7,  18.8,  19.4,   0.0,  0.13, 
 02/09/14, 18:00,  13.8,  99,  18.7,  18.8,  19.4,   0.0,  0.00, 
 02/09/14, 19:00,  13.6,  99,  18.5,  18.8,  19.4,   0.0,  0.00, 
 02/09/14, 20:00,  13.4,  99,  18.4,  18.8,  19.4,   0.0,  0.00, 
 02/09/14, 21:00,  13.4,  99,  18.3,  18.8,  19.4,   0.0,  0.00, 
 02/09/14, 22:00,  12.7,  99,  18.1,  18.8,  19.4,   0.0,  0.00, 
 02/09/14, 23:00,  12.6,  99,  18.0,  18.8,  19.2,   0.0,  0.00, 
 02/09/15, 00:00,  12.8,  97,  17.9,  18.7,  19.2,   0.0,  0.00, 
 02/09/15, 01:00,  12.6,  99,  17.8,  18.7,  19.2,   0.0,  0.00, 
 02/09/15, 02:00,  12.4,  99,  17.7,  18.6,  19.2,   0.0,  0.00, 
 02/09/15, 03:00,  11.5,  99,  17.6,  18.6,  19.2,   0.0,  0.00, 
 02/09/15, 04:00,  11.1,  99,  17.4,  18.5,  19.2,   0.0,  0.00, 
 02/09/15, 05:00,  10.8,  99,  17.3,  18.5,  19.2,   0.0,  0.00, 
 02/09/15, 06:00,  10.4,  99,  17.1,  18.4,  19.1,   0.0,  0.00, 
 02/09/15, 07:00,  10.9,  91,  17.0,  18.3,  19.1,   0.0,  0.11, 
 02/09/15, 08:00,  11.2,  97,  16.9,  18.3,  19.1,   0.0,  0.30, 
 02/09/15, 09:00,  12.4,  83,  16.9,  18.2,  19.1,   0.0,  0.27, 
 02/09/15, 10:00,  12.4,  93,  16.9,  18.1,  19.1,   0.0,  0.42, 
 02/09/15, 11:00,  13.9,  95,  17.0,  18.1,  19.1,   0.0,  1.26, 
 02/09/15, 12:00,  13.5,  96,  17.2,  18.0,  19.0,   0.0,  1.30, 
 02/09/15, 13:00,  16.1,  87,  17.6,  18.0,  19.0,   0.0,  2.17, 
 02/09/15, 14:00,  16.5,  78,  18.2,  18.0,  19.0,   0.0,  2.27, 
 02/09/15, 15:00,  15.7,  81,  18.5,  18.1,  19.0,   0.0,  1.19, 
 02/09/15, 16:00,  14.9,  85,  18.7,  18.1,  19.0,   0.0,  0.62, 
 02/09/15, 17:00,  14.0,  79,  18.8,  18.2,  18.9,   0.0,  0.29, 
 02/09/15, 18:00,  13.0,  83,  18.7,  18.3,  18.9,   0.0,  0.02, 
 02/09/15, 19:00,  12.1,  94,  18.5,  18.4,  18.9,   0.0,  0.00, 
 02/09/15, 20:00,  12.0,  99,  18.3,  18.4,  18.9,   0.0,  0.00, 
 02/09/15, 21:00,  11.9,  99,  18.1,  18.4,  18.9,   0.0,  0.00, 
 02/09/15, 22:00,  11.7,  99,  17.9,  18.4,  18.8,   0.0,  0.00, 
 02/09/15, 23:00,  11.5,  99,  17.7,  18.4,  18.8,   0.0,  0.00, 
 02/09/16, 00:00,  11.7,  99,  17.6,  18.3,  18.8,   0.0,  0.00, 
 02/09/16, 01:00,  11.7,  99,  17.4,  18.3,  18.8,   0.0,  0.00, 